Notices

What's New in latest Release from April 7th, 2021:

- Updated Glossary, including Speed of Maximum Gust, and Total Hourly Precipitation

- Updated national and regional climate services offices contacts and prices information

- Addition of station inventory lists for 1981-2010, 1971-2000, and 1961-1990 Normals.

If you haven't already, please take our survey and provide feedback about our website: https://eccc.sondage-survey.ca/f/LanguageSelection.aspx?s=442ca660-fcf1-47c0-95a9-59707d6fd709

Hourly Data Report for September 18, 2003

TORONTO CITY
ONTARIO

43°40'00.000" N
79°24'00.000" W
112.50 m
6158355
71508
XTO

Download Data

Hourly Data (September 2003)
Hourly Data Report for September 18, 2003
TIME
LST
Temp Definition
°C
Dew Point Definition
°C
Rel Hum Definition
%
Precip. Amount Definition
mm

Wind Dir Definition
10's deg

Wind Spd Definition
km/h
Visibility Definition
km
Stn Press Definition
kPa
Hmdx Definition


Wind Chill Definition


Weather Definition


00:00 18.5 15.3 82   LegendMM LegendMM LegendMM 101.24     LegendNANA
01:00 17.5 15.0 85   LegendMM LegendMM LegendMM 101.23     LegendNANA
02:00 16.8 14.8 88   LegendMM LegendMM LegendMM 101.20     LegendNANA
03:00 15.9 13.4 85   LegendMM LegendMM LegendMM 101.20     LegendNANA
04:00 15.3 12.9 86   LegendMM LegendMM LegendMM 101.20     LegendNANA
05:00 15.5 13.8 90   LegendMM LegendMM LegendMM 101.24     LegendNANA
06:00 15.8 14.2 90   LegendMM LegendMM LegendMM 101.28     LegendNANA
07:00 16.4 14.5 89   LegendMM LegendMM LegendMM 101.31     LegendNANA
08:00 18.8 16.2 85   LegendMM LegendMM LegendMM 101.31     LegendNANA
09:00 19.9 15.1 74   LegendMM LegendMM LegendMM 101.32     LegendNANA
10:00 20.8 14.6 68   LegendMM LegendMM LegendMM 101.27 25   LegendNANA
11:00 21.9 14.7 64   LegendMM LegendMM LegendMM 101.23 26   LegendNANA
12:00 21.6 15.3 67   LegendMM LegendMM LegendMM 101.15 26   LegendNANA
13:00 21.4 14.3 64   LegendMM LegendMM LegendMM 101.12 25   LegendNANA
14:00 20.8 14.9 69   LegendMM LegendMM LegendMM 101.09 25   LegendNANA
15:00 20.7 13.9 65   LegendMM LegendMM LegendMM 101.03     LegendNANA
16:00 20.7 15.0 70   LegendMM LegendMM LegendMM 100.94 25   LegendNANA
17:00 19.8 15.5 76   LegendMM LegendMM LegendMM 100.93     LegendNANA
18:00 19.9 15.9 78   LegendMM LegendMM LegendMM 100.94     LegendNANA
19:00 19.8 16.1 79   LegendMM LegendMM LegendMM 100.87     LegendNANA
20:00 20.2 15.4 74   LegendMM LegendMM LegendMM 100.79     LegendNANA
21:00 20.1 15.6 75   LegendMM LegendMM LegendMM 100.72     LegendNANA
22:00 19.3 16.8 85   LegendMM LegendMM LegendMM 100.59     LegendNANA
23:00 19.9 16.3 80   LegendMM LegendMM LegendMM 100.47     LegendNANA

Notes on Data Quality.

Legend

  • E = Estimated
  • M = Missing
  • NA = Not Available*
  • [empty] = Indicates an unobserved value
Date modified: